QPF
0.03 0.04 0.05 0.05 0.06 0.06 0.08 0.09 0.10 0.09 0.08 0.08 0.08 0.09 0.08 0.06 0.04 0.03 0.04 0.03 0.03 0.04 0.04 0.03 0.03 0.03 0.04 0.05 0.06 0.06 0.06 0.05 0.05 0.04 0.04 0.04 0.03 0.04
0.03 0.04 0.05 0.06 0.06 0.07 0.07 0.07 0.08 0.09 0.08 0.07 0.09 0.11 0.11 0.08 0.05 0.04 0.04 0.02 0.02 0.03 0.03 0.02 0.02 0.02 0.03 0.05 0.06 0.06 0.06 0.05 0.04 0.03 0.03 0.03 0.03 0.03
0.05 0.06 0.06 0.07 0.07 0.07 0.08 0.08 0.08 0.08 0.08 0.06 0.06 0.09 0.12 0.10 0.07 0.05 0.03 0.03 0.02 0.02 0.02 0.03 0.02 0.01 0.02 0.03 0.04 0.04 0.05 0.04 0.04 0.03 0.03 0.03 0.03 0.03
0.08 0.09 0.09 0.08 0.06 0.07 0.09 0.08 0.07 0.07 0.06 0.06 0.06 0.08 0.09 0.07 0.06 0.05 0.03 0.03 0.02 0.02 0.03 0.03 0.03 0.02 0.01 0.01 0.02 0.02 0.03 0.03 0.04 0.03 0.03 0.03 0.03 0.03
0.08 0.08 0.09 0.08 0.06 0.06 0.06 0.04 0.04 0.05 0.06 0.05 0.05 0.06 0.07 0.05 0.04 0.03 0.03 0.03 0.02 0.01 0.02 0.03 0.02 0.01 0.01 0.01 0.01 0.02 0.03 0.04 0.04 0.04 0.04 0.03 0.03 0.03
0.07 0.06 0.05 0.04 0.03 0.04 0.03 0.03 0.03 0.04 0.05 0.04 0.04 0.05 0.07 0.07 0.05 0.04 0.04 0.04 0.03 0.02 0.02 0.02 0.01 0.01 0.01 0.01 0.01 0.02 0.03 0.03 0.04 0.05 0.05 0.04 0.04 0.03
0.04 0.04 0.02 0.01 0.01 0.01 0.02 0.03 0.03 0.03 0.03 0.03 0.04 0.04 0.06 0.08 0.07 0.06 0.06 0.05 0.05 0.04 0.04 0.02 0.02 0.02 0.01 0.01 0.01 0.02 0.03 0.03 0.04 0.05 0.06 0.06 0.06 0.05
0.03 0.02 0.01 0.01 0.00 0.01 0.01 0.02 0.02 0.03 0.03 0.03 0.04 0.04 0.03 0.04 0.05 0.05 0.06 0.07 0.07 0.06 0.06 0.05 0.04 0.04 0.03 0.02 0.01 0.01 0.02 0.02 0.02 0.03 0.03 0.06 0.08 0.09
0.04 0.04 0.02 0.01 0.01 0.02 0.02 0.03 0.03 0.03 0.02 0.02 0.04 0.04 0.04 0.04 0.05 0.05 0.07 0.07 0.07 0.06 0.06 0.06 0.04 0.04 0.03 0.03 0.03 0.02 0.02 0.02 0.02 0.02 0.02 0.02 0.03 0.04
0.03 0.04 0.03 0.02 0.01 0.02 0.03 0.04 0.04 0.04 0.02 0.03 0.04 0.03 0.03 0.03 0.05 0.05 0.07 0.07 0.07 0.06 0.07 0.06 0.04 0.04 0.04 0.04 0.03 0.03 0.02 0.01 0.01 0.02 0.02 0.02 0.02 0.03
0.02 0.02 0.02 0.02 0.01 0.01 0.03 0.05 0.05 0.05 0.03 0.03 0.03 0.03 0.02 0.02 0.03 0.05 0.06 0.07 0.08 0.07 0.07 0.07 0.05 0.06 0.06 0.05 0.03 0.03 0.01 0.01 0.01 0.01 0.01 0.01 0.02 0.02
0.02 0.02 0.01 0.01 0.01 0.01 0.02 0.03 0.04 0.04 0.04 0.04 0.04 0.03 0.03 0.04 0.04 0.04 0.05 0.06 0.08 0.07 0.05 0.04 0.04 0.05 0.05 0.05 0.04 0.03 0.03 0.02 0.01 0.01 0.01 0.01 0.01 0.01
0.03 0.03 0.02 0.01 0.00 0.00 0.01 0.01 0.01 0.02 0.03 0.04 0.05 0.05 0.04 0.04 0.04 0.05 0.05 0.06 0.06 0.06 0.04 0.04 0.04 0.05 0.05 0.05 0.05 0.04 0.04 0.03 0.02 0.01 0.01 0.01 0.00 0.00
0.01 0.01 0.01 0.00 0.00 0.00 0.00 0.00 0.00 0.01 0.02 0.03 0.04 0.03 0.03 0.03 0.03 0.04 0.04 0.05 0.05 0.05 0.04 0.03 0.05 0.05 0.05 0.05 0.05 0.04 0.04 0.04 0.04 0.03 0.02 0.01 0.01 0.00
0.00 0.00 0.00 0.00 0.00 0.00 0.00 0.01 0.01 0.01 0.02 0.03 0.03 0.03 0.03 0.03 0.03 0.04 0.04 0.04 0.03 0.03 0.03 0.03 0.04 0.04 0.04 0.04 0.04 0.03 0.03 0.03 0.03 0.03 0.03 0.02 0.01 0.01
0.01 0.01 0.01 0.01 0.01 0.01 0.01 0.01 0.01 0.01 0.02 0.02 0.02 0.02 0.02 0.02 0.02 0.03 0.03 0.03 0.03 0.02 0.02 0.02 0.03 0.04 0.04 0.04 0.04 0.03 0.03 0.03 0.02 0.02 0.03 0.03 0.02 0.01
0.01 0.01 0.01 0.02 0.02 0.03 0.03 0.03 0.03 0.03 0.02 0.02 0.02 0.02 0.02 0.02 0.02 0.02 0.03 0.03 0.03 0.03 0.02 0.03 0.04 0.04 0.04 0.05 0.04 0.03 0.03 0.02 0.01 0.02 0.03 0.03 0.03 0.02
0.01 0.01 0.01 0.02 0.02 0.03 0.03 0.03 0.03 0.03 0.02 0.02 0.02 0.02 0.03 0.02 0.02 0.02 0.03 0.03 0.04 0.04 0.04 0.04 0.05 0.05 0.05 0.04 0.03 0.03 0.03 0.03 0.02 0.03 0.03 0.04 0.03 0.02
0.01 0.01 0.01 0.02 0.02 0.03 0.03 0.03 0.03 0.03 0.03 0.03 0.03 0.02 0.02 0.02 0.02 0.02 0.02 0.03 0.03 0.03 0.03 0.03 0.03 0.04 0.05 0.04 0.02 0.01 0.02 0.03 0.03 0.03 0.03 0.03 0.03 0.02
0.01 0.01 0.01 0.01 0.02 0.03 0.03 0.03 0.02 0.02 0.03 0.03 0.03 0.02 0.02 0.02 0.02 0.02 0.02 0.03 0.03 0.02 0.02 0.02 0.02 0.02 0.03 0.04 0.03 0.02 0.02 0.02 0.03 0.03 0.03 0.03 0.03 0.03
0.01 0.01 0.01 0.01 0.02 0.02 0.02 0.02 0.02 0.02 0.02 0.02 0.02 0.02 0.02 0.02 0.03 0.02 0.03 0.03 0.03 0.03 0.02 0.02 0.02 0.02 0.03 0.04 0.04 0.03 0.02 0.02 0.02 0.03 0.03 0.03 0.03 0.03
0.01 0.01 0.01 0.01 0.01 0.01 0.01 0.01 0.01 0.02 0.02 0.01 0.01 0.01 0.02 0.02 0.02 0.02 0.03 0.02 0.02 0.02 0.02 0.01 0.01 0.02 0.03 0.04 0.04 0.03 0.02 0.02 0.02 0.02 0.03 0.03 0.03 0.03
0.01 0.01 0.01 0.01 0.01 0.01 0.01 0.01 0.01 0.01 0.01 0.01 0.01 0.01 0.01 0.02 0.02 0.02 0.02 0.02 0.02 0.02 0.02 0.02 0.02 0.03 0.03 0.04 0.03 0.03 0.03 0.03 0.04 0.04 0.04 0.03 0.03 0.03
MSLP
1010.56 1011.11 1011.69 1012.25 1012.75 1013.15 1013.44 1013.64 1013.76 1013.85 1013.93 1014.04 1014.19 1014.39 1014.65 1014.94 1015.25 1015.57 1015.89 1016.20 1016.48 1016.73 1016.93 1017.08 1017.16 1017.16 1017.09 1016.95 1016.76 1016.55 1016.34 1016.17 1016.08 1016.07 1016.17 1016.37 1016.65 1017.00
1010.34 1010.88 1011.45 1012.01 1012.51 1012.91 1013.20 1013.39 1013.51 1013.58 1013.65 1013.73 1013.86 1014.04 1014.27 1014.54 1014.85 1015.17 1015.49 1015.82 1016.12 1016.41 1016.67 1016.88 1017.04 1017.13 1017.16 1017.13 1017.05 1016.94 1016.82 1016.74 1016.71 1016.75 1016.87 1017.06 1017.33 1017.64
1010.35 1010.86 1011.42 1011.96 1012.45 1012.83 1013.11 1013.30 1013.40 1013.46 1013.51 1013.58 1013.68 1013.83 1014.03 1014.28 1014.55 1014.84 1015.15 1015.46 1015.77 1016.08 1016.36 1016.61 1016.83 1016.99 1017.10 1017.16 1017.17 1017.15 1017.13 1017.12 1017.15 1017.23 1017.37 1017.57 1017.82 1018.11
1010.62 1011.10 1011.62 1012.13 1012.59 1012.95 1013.22 1013.39 1013.48 1013.53 1013.56 1013.60 1013.68 1013.80 1013.97 1014.17 1014.40 1014.65 1014.91 1015.19 1015.47 1015.75 1016.03 1016.29 1016.53 1016.74 1016.91 1017.03 1017.12 1017.18 1017.23 1017.30 1017.38 1017.50 1017.67 1017.88 1018.12 1018.38
1011.14 1011.57 1012.05 1012.52 1012.94 1013.27 1013.51 1013.66 1013.74 1013.77 1013.79 1013.81 1013.86 1013.95 1014.07 1014.22 1014.39 1014.58 1014.78 1015.00 1015.23 1015.46 1015.71 1015.95 1016.19 1016.41 1016.61 1016.78 1016.92 1017.04 1017.16 1017.28 1017.42 1017.58 1017.78 1018.00 1018.24 1018.48
1011.85 1012.23 1012.66 1013.08 1013.45 1013.74 1013.94 1014.07 1014.12 1014.14 1014.14 1014.15 1014.17 1014.22 1014.29 1014.39 1014.50 1014.62 1014.75 1014.90 1015.06 1015.23 1015.42 1015.63 1015.84 1016.05 1016.25 1016.44 1016.62 1016.78 1016.94 1017.11 1017.29 1017.49 1017.71 1017.95 1018.19 1018.42
1012.66 1012.99 1013.36 1013.71 1014.03 1014.27 1014.43 1014.53 1014.56 1014.56 1014.55 1014.53 1014.53 1014.55 1014.58 1014.63 1014.68 1014.73 1014.79 1014.86 1014.95 1015.06 1015.20 1015.35 1015.52 1015.71 1015.90 1016.09 1016.27 1016.46 1016.64 1016.84 1017.04 1017.27 1017.50 1017.75 1017.99 1018.21
1013.45 1013.73 1014.04 1014.33 1014.59 1014.78 1014.90 1014.96 1014.97 1014.95 1014.92 1014.89 1014.87 1014.86 1014.86 1014.86 1014.86 1014.86 1014.86 1014.88 1014.90 1014.96 1015.04 1015.14 1015.28 1015.43 1015.59 1015.76 1015.94 1016.12 1016.31 1016.51 1016.72 1016.94 1017.18 1017.41 1017.64 1017.84
1014.14 1014.37 1014.62 1014.85 1015.05 1015.18 1015.26 1015.29 1015.28 1015.25 1015.21 1015.17 1015.13 1015.10 1015.08 1015.05 1015.01 1014.98 1014.94 1014.91 1014.90 1014.91 1014.96 1015.02 1015.12 1015.24 1015.37 1015.51 1015.66 1015.81 1015.98 1016.15 1016.34 1016.53 1016.74 1016.95 1017.15 1017.33
1014.66 1014.86 1015.05 1015.23 1015.36 1015.45 1015.49 1015.49 1015.46 1015.41 1015.37 1015.32 1015.28 1015.24 1015.20 1015.16 1015.10 1015.05 1015.00 1014.95 1014.93 1014.92 1014.94 1014.99 1015.06 1015.15 1015.24 1015.34 1015.44 1015.54 1015.65 1015.77 1015.91 1016.05 1016.21 1016.37 1016.52 1016.66
1015.03 1015.19 1015.33 1015.46 1015.54 1015.59 1015.59 1015.56 1015.52 1015.47 1015.41 1015.36 1015.32 1015.28 1015.23 1015.19 1015.13 1015.08 1015.03 1014.99 1014.96 1014.96 1014.98 1015.02 1015.07 1015.13 1015.18 1015.23 1015.27 1015.30 1015.33 1015.37 1015.43 1015.49 1015.58 1015.68 1015.78 1015.87
1015.28 1015.40 1015.51 1015.59 1015.63 1015.63 1015.60 1015.56 1015.50 1015.44 1015.38 1015.33 1015.29 1015.25 1015.20 1015.16 1015.11 1015.06 1015.02 1015.00 1014.99 1015.00 1015.03 1015.06 1015.10 1015.13 1015.14 1015.13 1015.09 1015.05 1014.99 1014.93 1014.89 1014.88 1014.88 1014.92 1014.97 1015.03
1015.48 1015.57 1015.63 1015.66 1015.66 1015.62 1015.57 1015.50 1015.43 1015.37 1015.31 1015.26 1015.21 1015.17 1015.13 1015.08 1015.04 1015.00 1014.98 1014.97 1014.98 1015.00 1015.04 1015.07 1015.10 1015.10 1015.06 1014.99 1014.88 1014.75 1014.60 1014.45 1014.32 1014.22 1014.16 1014.14 1014.15 1014.20
1015.69 1015.73 1015.74 1015.72 1015.67 1015.60 1015.51 1015.43 1015.35 1015.27 1015.21 1015.16 1015.11 1015.06 1015.02 1014.97 1014.93 1014.90 1014.88 1014.88 1014.90 1014.94 1014.97 1015.00 1015.01 1014.98 1014.90 1014.77 1014.59 1014.38 1014.15 1013.92 1013.72 1013.56 1013.45 1013.40 1013.40 1013.45
1015.91 1015.90 1015.85 1015.77 1015.67 1015.56 1015.44 1015.33 1015.24 1015.16 1015.09 1015.03 1014.98 1014.93 1014.87 1014.82 1014.77 1014.73 1014.71 1014.71 1014.73 1014.77 1014.80 1014.81 1014.80 1014.73 1014.61 1014.43 1014.20 1013.93 1013.64 1013.37 1013.12 1012.93 1012.80 1012.75 1012.77 1012.86
1016.12 1016.04 1015.92 1015.79 1015.63 1015.47 1015.33 1015.20 1015.09 1015.00 1014.93 1014.86 1014.80 1014.74 1014.67 1014.61 1014.55 1014.50 1014.46 1014.45 1014.46 1014.48 1014.49 1014.49 1014.45 1014.36 1014.20 1013.99 1013.72 1013.42 1013.11 1012.81 1012.56 1012.37 1012.26 1012.24 1012.31 1012.46
1016.25 1016.10 1015.92 1015.72 1015.51 1015.31 1015.13 1014.98 1014.86 1014.77 1014.70 1014.63 1014.56 1014.49 1014.41 1014.33 1014.25 1014.18 1014.13 1014.09 1014.08 1014.07 1014.06 1014.04 1013.97 1013.86 1013.69 1013.46 1013.18 1012.88 1012.57 1012.28 1012.05 1011.90 1011.84 1011.88 1012.01 1012.23
1016.24 1016.02 1015.78 1015.52 1015.27 1015.04 1014.84 1014.68 1014.56 1014.46 1014.39 1014.33 1014.26 1014.18 1014.09 1014.00 1013.89 1013.80 1013.72 1013.66 1013.62 1013.58 1013.55 1013.50 1013.42 1013.29 1013.11 1012.89 1012.62 1012.33 1012.05 1011.81 1011.63 1011.53 1011.53 1011.64 1011.84 1012.13
1016.04 1015.78 1015.49 1015.19 1014.91 1014.66 1014.46 1014.30 1014.18 1014.10 1014.03 1013.98 1013.91 1013.83 1013.74 1013.62 1013.51 1013.39 1013.28 1013.19 1013.12 1013.06 1013.00 1012.93 1012.83 1012.70 1012.53 1012.32 1012.07 1011.82 1011.59 1011.40 1011.27 1011.24 1011.30 1011.47 1011.73 1012.07
1015.67 1015.37 1015.06 1014.76 1014.47 1014.23 1014.03 1013.88 1013.78 1013.72 1013.67 1013.62 1013.56 1013.48 1013.38 1013.26 1013.12 1012.98 1012.85 1012.73 1012.63 1012.54 1012.46 1012.37 1012.27 1012.14 1011.98 1011.79 1011.58 1011.37 1011.18 1011.04 1010.97 1010.99 1011.10 1011.31 1011.61 1011.98
1015.15 1014.86 1014.56 1014.27 1014.00 1013.78 1013.61 1013.49 1013.42 1013.37 1013.34 1013.31 1013.26 1013.18 1013.07 1012.94 1012.79 1012.63 1012.47 1012.33 1012.20 1012.09 1011.99 1011.89 1011.78 1011.65 1011.50 1011.33 1011.15 1010.98 1010.83 1010.74 1010.70 1010.75 1010.89 1011.12 1011.43 1011.80
1014.58 1014.32 1014.05 1013.79 1013.57 1013.39 1013.26 1013.18 1013.13 1013.11 1013.10 1013.08 1013.03 1012.95 1012.84 1012.69 1012.52 1012.34 1012.17 1012.00 1011.85 1011.72 1011.60 1011.48 1011.37 1011.24 1011.11 1010.96 1010.80 1010.66 1010.54 1010.46 1010.45 1010.51 1010.65 1010.87 1011.16 1011.50
1014.03 1013.81 1013.59 1013.39 1013.22 1013.09 1013.00 1012.96 1012.94 1012.94 1012.94 1012.92 1012.88 1012.79 1012.67 1012.51 1012.33 1012.13 1011.94 1011.75 1011.58 1011.43 1011.30 1011.17 1011.05 1010.93 1010.80 1010.66 1010.53 1010.40 1010.29 1010.22 1010.21 1010.26 1010.38 1010.57 1010.82 1011.13
Thickness
5613 5612 5610 5610 5609 5609 5607 5605 5601 5599 5601 5604 5605 5607 5607 5607 5607 5607 5607 5608 5610 5611 5611 5613 5614 5615 5615 5617 5618 5620 5621 5621 5623 5624 5625 5625 5626 5626
5608 5607 5605 5604 5604 5604 5603 5602 5601 5598 5596 5600 5601 5602 5602 5601 5601 5601 5603 5604 5605 5606 5607 5607 5608 5608 5609 5610 5611 5612 5614 5615 5616 5617 5619 5619 5620 5620
5603 5602 5600 5600 5598 5598 5598 5597 5597 5596 5593 5594 5596 5597 5597 5596 5596 5597 5598 5599 5600 5602 5602 5603 5603 5603 5603 5604 5605 5606 5607 5608 5610 5611 5612 5613 5613 5614
5599 5597 5596 5596 5594 5594 5593 5592 5592 5592 5590 5589 5590 5592 5592 5593 5593 5593 5594 5596 5597 5598 5598 5599 5599 5598 5598 5598 5599 5600 5601 5602 5604 5605 5606 5607 5608 5608
5595 5594 5592 5592 5590 5589 5588 5588 5589 5589 5588 5586 5586 5588 5588 5589 5589 5590 5591 5592 5593 5594 5594 5594 5594 5594 5594 5594 5594 5596 5597 5598 5599 5600 5600 5602 5602 5603
5593 5591 5590 5588 5587 5586 5586 5586 5586 5585 5585 5584 5583 5583 5584 5585 5585 5585 5585 5587 5589 5590 5590 5591 5591 5591 5591 5591 5592 5592 5592 5593 5594 5595 5596 5597 5597 5598
5591 5589 5588 5587 5585 5585 5585 5584 5584 5583 5582 5581 5580 5580 5580 5580 5580 5581 5581 5582 5584 5586 5586 5587 5588 5588 5588 5589 5589 5589 5590 5590 5591 5591 5592 5593 5593 5594
5589 5588 5587 5586 5585 5585 5584 5583 5582 5581 5580 5579 5578 5577 5577 5578 5578 5578 5578 5578 5578 5583 5583 5584 5586 5586 5587 5588 5588 5589 5589 5588 5588 5588 5588 5589 5589 5589
5589 5587 5587 5587 5585 5584 5584 5584 5583 5581 5579 5578 5577 5577 5576 5576 5575 5575 5575 5575 5576 5579 5580 5581 5584 5584 5587 5588 5588 5588 5588 5587 5587 5586 5586 5586 5585 5585
5589 5587 5586 5584 5583 5582 5583 5584 5583 5583 5582 5580 5579 5579 5578 5577 5575 5574 5574 5575 5577 5579 5580 5579 5582 5584 5587 5588 5588 5587 5587 5586 5585 5585 5584 5584 5583 5583
5589 5588 5586 5584 5582 5581 5581 5581 5582 5582 5583 5582 5581 5580 5579 5577 5575 5573 5573 5573 5575 5578 5580 5579 5581 5582 5584 5585 5586 5586 5585 5585 5584 5583 5583 5582 5582 5580
5589 5588 5585 5584 5582 5580 5579 5579 5579 5580 5581 5581 5580 5580 5579 5578 5577 5574 5573 5573 5574 5575 5579 5578 5579 5580 5580 5583 5585 5584 5583 5583 5583 5582 5581 5580 5579 5576
5589 5587 5585 5583 5582 5580 5578 5578 5578 5577 5578 5579 5580 5581 5581 5581 5580 5578 5577 5575 5574 5575 5579 5578 5578 5578 5577 5579 5581 5583 5582 5582 5581 5581 5580 5579 5577 5574
5588 5587 5585 5583 5581 5580 5579 5579 5578 5577 5577 5578 5579 5580 5581 5582 5582 5582 5580 5579 5579 5578 5579 5579 5577 5576 5576 5576 5577 5580 5582 5582 5582 5581 5580 5579 5576 5574
5588 5587 5585 5583 5582 5582 5582 5580 5579 5578 5579 5579 5579 5581 5583 5583 5583 5583 5582 5581 5581 5580 5580 5579 5578 5577 5576 5575 5575 5577 5577 5579 5579 5579 5578 5577 5575 5573
5587 5586 5586 5585 5585 5584 5583 5583 5582 5582 5581 5581 5581 5582 5583 5583 5583 5582 5581 5580 5579 5580 5581 5580 5580 5578 5576 5576 5575 5575 5576 5576 5577 5576 5576 5575 5575 5574
5583 5585 5586 5587 5588 5587 5586 5586 5586 5584 5583 5582 5581 5581 5582 5582 5582 5582 5581 5580 5578 5578 5579 5581 5581 5579 5578 5576 5573 5575 5575 5575 5575 5575 5573 5571 5572 5572
5582 5585 5586 5587 5588 5588 5587 5586 5586 5585 5584 5582 5581 5581 5581 5580 5580 5580 5579 5578 5576 5577 5577 5578 5577 5576 5574 5576 5575 5573 5573 5573 5573 5572 5571 5568 5568 5569
5583 5586 5588 5588 5588 5588 5586 5585 5585 5585 5584 5582 5581 5580 5580 5579 5578 5578 5577 5576 5575 5575 5576 5576 5574 5571 5568 5569 5574 5574 5571 5571 5570 5569 5567 5566 5566 5567
5589 5589 5589 5589 5588 5587 5586 5584 5584 5583 5581 5580 5579 5579 5578 5577 5576 5575 5575 5574 5573 5573 5573 5573 5572 5570 5568 5568 5570 5572 5571 5568 5566 5564 5565 5565 5563 5563
5591 5590 5590 5588 5587 5586 5584 5583 5581 5580 5579 5578 5577 5576 5575 5574 5573 5573 5573 5571 5569 5569 5568 5569 5570 5571 5569 5568 5566 5567 5568 5567 5565 5562 5561 5559 5557 5556
5590 5589 5588 5586 5585 5583 5582 5580 5578 5576 5575 5574 5573 5572 5572 5571 5569 5568 5568 5567 5567 5566 5565 5566 5568 5566 5564 5561 5560 5562 5563 5563 5562 5560 5557 5554 5551 5550
5588 5586 5585 5583 5582 5580 5578 5576 5574 5572 5571 5569 5568 5567 5566 5565 5565 5564 5564 5563 5563 5562 5561 5561 5561 5560 5559 5557 5557 5557 5557 5556 5555 5552 5550 5550 5548 5546